RH
31 32 34 37 38 37 38 43 43 41 40 40 37 37 37 35 33 32 32 31 33 33 31 35 36 40 41 38 39 44 47 42 39 41 38 32 37 38 43 38 39 40 39 37 38
27 28 29 30 34 36 36 36 37 40 38 40 40 37 37 35 33 33 35 34 30 32 31 30 33 38 39 39 43 45 48 40 37 39 40 38 38 39 42 41 38 39 39 38 38
23 26 30 32 31 32 33 34 34 35 36 37 41 43 40 35 34 34 34 34 30 30 29 30 33 38 40 41 40 42 42 37 38 39 41 41 39 41 43 41 40 37 36 36 34
25 26 28 30 30 35 36 38 35 32 31 33 34 39 40 36 34 34 35 35 33 33 31 31 33 38 40 41 36 44 40 41 38 39 42 42 43 41 44 43 37 35 38 32 36
18 19 22 25 26 30 34 34 35 33 29 28 32 37 38 34 30 39 36 34 34 34 33 33 33 33 37 39 41 43 38 40 40 42 45 45 44 44 41 41 35 36 32 33 37
22 19 17 17 23 26 28 30 32 31 31 30 30 31 30 32 35 39 38 36 36 36 35 34 34 34 35 36 40 36 39 40 43 44 45 46 43 46 38 37 33 33 31 33 36
23 24 23 20 18 18 23 25 22 25 29 29 30 31 30 24 32 35 37 37 36 33 31 32 32 32 31 32 34 36 38 39 42 42 41 46 39 37 37 36 32 35 34 33 32
23 22 22 22 22 21 19 17 16 18 30 30 29 30 32 25 29 30 33 35 34 32 32 31 31 29 29 30 31 34 32 31 32 40 39 47 36 33 35 34 33 36 38 32 29
16 15 16 18 20 21 21 19 18 17 20 28 28 31 26 22 22 28 31 30 33 34 35 34 37 34 31 32 34 32 28 29 33 40 40 45 36 35 36 35 35 37 35 36 29
15 15 15 15 16 18 18 18 19 20 23 27 28 28 18 17 19 21 24 27 30 31 35 40 39 40 38 38 34 25 24 29 32 35 40 40 38 35 37 38 33 33 34 32 26
17 16 16 16 16 16 14 16 27 30 33 30 24 18 19 17 18 20 22 21 25 31 35 36 42 38 35 33 24 23 23 26 30 33 38 37 35 34 38 38 32 32 33 29 27
18 18 17 19 19 17 21 23 30 42 39 31 27 30 20 21 19 17 20 20 23 27 35 42 35 35 36 31 24 20 23 25 28 30 37 34 33 34 40 38 34 30 28 29 29
23 23 22 22 22 19 25 28 33 40 43 29 27 27 26 25 24 17 18 18 18 23 29 33 36 35 34 26 24 20 22 25 31 30 35 33 31 34 35 32 32 29 29 29 31
30 30 30 28 25 27 30 37 39 39 39 22 21 20 27 32 24 19 18 18 18 16 19 20 26 34 29 22 19 20 17 23 34 34 35 37 37 34 31 28 27 23 25 26 32
38 37 38 39 36 31 31 39 45 40 29 9 13 14 20 25 24 22 20 19 17 16 17 18 17 21 22 19 15 17 14 24 28 31 36 31 36 28 29 23 20 23 25 27 29
41 40 40 39 39 36 35 45 48 46 42 14 26 28 25 23 24 25 23 22 19 19 16 14 14 15 15 15 15 13 19 33 33 36 42 34 41 26 29 23 19 22 26 24 27
44 43 44 45 42 43 44 54 63 63 18 27 33 28 28 33 29 29 28 24 22 23 22 18 16 15 14 15 13 24 33 42 46 46 37 37 41 31 29 25 25 25 28 30 25
48 45 45 44 48 51 54 65 78 35 23 38 35 31 29 44 44 37 34 27 22 18 19 20 19 15 13 14 12 22 26 32 41 42 36 39 35 32 33 27 27 27 29 33 27
46 46 44 51 56 62 63 71 56 48 40 39 48 45 48 48 49 49 37 28 21 18 18 19 18 14 13 12 13 18 24 23 34 42 38 33 30 31 29 27 28 32 32 35 25
51 55 61 66 70 78 79 71 65 55 47 46 65 60 78 66 62 57 39 30 25 21 19 20 22 15 15 12 12 14 23 34 43 45 40 33 32 32 26 32 32 32 34 32 32
57 61 67 91 92 94 89 80 68 54 64 53 56 65 81 83 77 67 46 46 38 29 22 20 22 23 18 15 11 16 27 33 36 39 41 40 27 27 31 33 34 33 33 35 32
66 72 78 95 98 96 94 77 79 65 54 52 59 65 82 91 80 73 60 56 52 48 34 21 24 26 18 17 13 17 22 27 30 35 34 35 25 23 30 31 33 32 37 37 31
65 68 73 94 96 92 89 83 79 69 66 58 60 64 69 78 81 81 75 62 56 51 44 32 27 31 30 22 21 22 23 28 28 35 35 33 24 23 28 29 33 34 38 35 32
66 70 85 95 99 96 88 84 81 73 63 55 61 51 60 70 73 76 83 68 66 56 51 44 30 24 23 20 20 21 25 26 28 35 34 28 24 29 32 33 35 38 35 33 35
75 72 81 81 77 76 74 72 77 77 70 58 60 58 64 74 73 74 75 80 71 62 53 46 33 24 18 20 24 23 21 24 25 24 27 24 25 31 35 33 37 37 34 33 35
73 83 77 77 68 68 77 85 85 83 79 64 66 73 69 76 81 87 85 88 81 69 58 49 45 27 23 20 26 27 28 26 26 28 27 24 24 28 32 35 37 36 33 30 33
83 80 77 85 80 75 79 89 94 88 86 75 81 79 72 72 78 85 89 86 83 74 66 55 53 44 28 23 29 33 30 29 28 28 27 25 18 25 31 33 35 36 33 31 32